This is the latest recevied weather packets stored in our database for station/object DC2ML-11. If no packets are shown the sender has not sent any weather packets the latest 10 day(s).
| Time | Temp. | Humidity | Pressure | Rain* | Wind** | Luminosity | Snow |
|---|---|---|---|---|---|---|---|
| 1788246345 | 18.89° C | 69% | 1020.6 hPa | - | - | - | - |
| 1788245445 | 19.44° C | 68% | 1020.7 hPa | - | - | - | - |
| 1788244545 | 19.44° C | 68% | 1020.6 hPa | - | - | - | - |
| 1788243645 | 18.89° C | 67% | 1020.5 hPa | - | - | - | - |
| 1788242744 | 18.89° C | 67% | 1020.4 hPa | - | - | - | - |
| 1788241844 | 18.89° C | 68% | 1020.4 hPa | - | - | - | - |
| 1788240944 | 18.89° C | 66% | 1020.3 hPa | - | - | - | - |
| 1788240048 | 18.33° C | 69% | 1020.1 hPa | - | - | - | - |
| 1788239148 | 17.78° C | 70% | 1019.9 hPa | - | - | - | - |
| 1788238248 | 18.33° C | 69% | 1019.9 hPa | - | - | - | - |
| 1788237348 | 18.33° C | 69% | 1019.7 hPa | - | - | - | - |
| 1788235548 | 18.89° C | 66% | 1019.4 hPa | - | - | - | - |
| 1788234648 | 18.89° C | 66% | 1019.4 hPa | - | - | - | - |
| 1788233748 | 18.89° C | 63% | 1019.1 hPa | - | - | - | - |
| 1788232848 | 18.89° C | 63% | 1019.2 hPa | - | - | - | - |
| 1788231948 | 18.89° C | 62% | 1019.2 hPa | - | - | - | - |
| 1788231048 | 19.44° C | 62% | 1019 hPa | - | - | - | - |
| 1788230148 | 19.44° C | 62% | 1018.9 hPa | - | - | - | - |
| 1788229247 | 19.44° C | 61% | 1018.9 hPa | - | - | - | - |
| 1788228347 | 19.44° C | 61% | 1018.8 hPa | - | - | - | - |
| 1788227447 | 19.44° C | 61% | 1018.8 hPa | - | - | - | - |
| 1788226547 | 19.44° C | 60% | 1018.7 hPa | - | - | - | - |
| 1788225647 | 19.44° C | 59% | 1018.8 hPa | - | - | - | - |
| 1788224747 | 19.44° C | 59% | 1018.7 hPa | - | - | - | - |
| 1788223847 | 20° C | 59% | 1018.9 hPa | - | - | - | - |
* Rain since midnight (hover to see other rain measurements)
** Current wind speed in m/s (hover to see current wind gust speed)